Regional Weather Roundup
Issued by NWS

Home | Current Version | Previous Version | Graphics & Text | Print | Product List | Glossary On
Versions: 1 2 3 4 5 6 7 8 9 10 11 12 13 14 15 16 17 18 19 20 21 22 23 24 25 26 27 28 29 30 31 32 33 34 35 36 37 38 39 40 41 42 43 44 45 46 47 48
000
ASUS45 KPSR 272010
RWRAZ

ARIZONA HOURLY REGIONAL WEATHER ROUNDUP
NATIONAL WEATHER SERVICE PHOENIX AZ
100 PM MST SAT MAY 27 2017

NOTE: FAIR INDICATES FEW OR NO CLOUDS BELOW 12,000 FEET WITH NO
SIGNIFICANT WEATHER AND/OR OBSTRUCTIONS TO VISIBILITY.

AZZ001>003-036-272100-
NORTHWEST ARIZONA

CITY           SKY/WX    TMP DP  RH WIND       PRES   REMARKS
BULLHEAD CITY  SUNNY     91  39  16 VRB6G15   29.90F
KINGMAN        SUNNY     85  32  15 MISG      30.04F
$$

AZZ004>008-015-016-018-272100-
NORTH CENTRAL ARIZONA

CITY           SKY/WX    TMP DP  RH WIND       PRES   REMARKS
GRAND CANYON   SUNNY     70  23  17 SW10G17   30.20F
WILLIAMS       SUNNY     70  25  18 W8G17     30.21F
PRESCOTT       SUNNY     78  25  14 S9        30.12F
FLAGSTAFF      MOSUNNY   68  23  18 W10G23    30.20S
PAYSON         SUNNY     77  25  14 VRB7G15   30.16F
PAGE           SUNNY     78  29  16 MISG      30.06F
$$

AZZ009>014-017-272100-
NORTHEAST ARIZONA

CITY           SKY/WX    TMP DP  RH WIND       PRES   REMARKS
WINSLOW        SUNNY     81  21  11 MISG      30.08F
SAINT JOHNS    SUNNY     78  19  11 W13G22    30.11F
WINDOW ROCK    SUNNY     73  22  14 W14G21    30.17F
SHOW LOW       SUNNY     72  18  13 S9        30.19S
$$

AZZ540-542>544-546-548-272100-
GREATER PHOENIX AREA

CITY           SKY/WX    TMP DP  RH WIND       PRES   REMARKS
PHOENIX        MOSUNNY   90  25   9 CALM      29.91F
BUCKEYE        SUNNY     88  32  13 SW6       29.94F
GLENDALE       MOSUNNY   91  32  12 CALM      29.94F
LUKE AFB       MOSUNNY   90  32  12 CALM      29.92F
DEER VALLEY    SUNNY     88  23   9 VRB3      29.93F
SCOTTSDALE     SUNNY     90  23   9 VRB7      29.95F
MESA-FALCON    SUNNY     90  25   9 SW7       29.94F
MESA-GATEWAY   SUNNY     90  23   9 SE5       29.95F
CHANDLER       SUNNY     90  23   9 SW9       29.93F
$$

AZZ539-553-272100-
SOUTHWEST MARICOPA COUNTY AND PINAL COUNTY

CITY           SKY/WX    TMP DP  RH WIND       PRES   REMARKS
CASA GRANDE    SUNNY     90  28  11 VRB3      29.95F
GILA BEND      FAIR      91  29  11 E3        29.90F
$$

AZZ503-504-507>509-272100-
SOUTHEAST ARIZONA

CITY           SKY/WX    TMP DP  RH WIND       PRES   REMARKS
TUCSON         SUNNY     90  17   7 CALM      30.00F
DAVIS-MONTHAN  SUNNY     90  12   5 S5        29.99F
RYAN FIELD     SUNNY     90  16   6 NE3       29.99F
NOGALES        SUNNY     90  11   5 SW10G21   30.06F
SIERRA VISTA   SUNNY     86   5   4 SW15G23   30.11F
DOUGLAS        SUNNY     89  18   7 W17G25    30.05F
SAFFORD        SUNNY     89  15   6 W8        29.98F
$$

AZZ532-272100-
SOUTHWEST ARIZONA

CITY           SKY/WX    TMP DP  RH WIND       PRES   REMARKS
YUMA           SUNNY     90  41  18 SW7       29.91F
$$

CAZ041-043-047-048-061-525>527-560>570-272100-
SOUTHERN CALIFORNIA

CITY           SKY/WX    TMP DP  RH WIND       PRES   REMARKS
DOWNTOWN L.A.  MOSUNNY   71  52  50 MISG      30.05F
L.A. AIRPORT   MOSUNNY   68  54  60 W13       30.07S
SAN DIEGO      PTSUNNY   69  55  60 W15       30.08S
BURBANK        SUNNY     70  49  47 S9        30.04F
ONTARIO        SUNNY     73  48  41 S8        30.04F
RIVERSIDE      SUNNY     74  49  41 SW6       30.04F
PALM SPRINGS   SUNNY     90  36  14 VRB6      29.93F
EL CENTRO NAS  SUNNY     88  38  17 VRB5      29.92F
IMPERIAL       SUNNY     89  44  20 VRB3      29.90F
BLYTHE         SUNNY     90  37  15 S6        29.91F
NEEDLES        SUNNY     95  33  11 NE7       29.91F
$$

NVZ020-UTZ003-272100-
SOUTHERN NEVADA-UTAH

CITY           SKY/WX    TMP DP  RH WIND       PRES   REMARKS
LAS VEGAS      MOSUNNY   88  24  10 NE8G17    29.98F
SALT LAKE CITY MOSUNNY   67  35  30 NW9G18    30.22S
$$

NMZ009-TXZ055-272100-
NEW MEXICO-WEST TEXAS

CITY           SKY/WX    TMP DP  RH WIND       PRES   REMARKS
ALBUQUERQUE    MOSUNNY   80  13   8 W12       30.06F
EL PASO        MOSUNNY   91  25   9 SW20G36   30.01F
$$


........................KEY........................
SKY/WX - SKY CONDITION/WEATHER
TMP    - TEMPERATURE IN FAHRENHEIT
DP     - DEW POINT IN FAHRENHEIT
RH     - RELATIVE HUMIDITY IN PERCENT
WIND   - DIRECTION AND SPEED IN MILES PER HOUR (MPH)
VRB    - VARIABLE WIND DIRECTION
PRES   - MEAN SEA LEVEL PRESSURE IN INCHES OF MERCURY
         F - FALLING PRESSURE   R - RISING PRESSURE
         S - STEADY PRESSURE
VSB    - VISIBILITY IN MILES
HX     - HEAT INDEX IN FAHRENHEIT
WCI    - WIND CHILL INDEX IN FAHRENHEIT
TC     - TEMPERATURE IN CELSIUS WHICH IS ALSO KNOWN AS
         TEMPERATURE IN CENTIGRADE
AFB    - AIR FORCE BASE
         LUKE AFB IS LUKE AIR FORCE BASE
         DAVIS-MONTHAN IS DAVIS-MONTHAN AIR FORCE BASE
NAS    - NAVAL AIR STATION
         EL CENTRO NAS IS EL CENTRO NAVAL AIR STATION
N/A    - NOT AVAILABLE





USA.gov is the U.S. government's official web portal to all federal, state and local government web resources and services.